Hourly Data Report for September 10, 2017

All times are specified in Local Standard Time (LST). Add 1 hour to adjust for Daylight Saving Time where and when it is observed.

KOUCHIBOUGUAC CS
NEW BRUNSWICK

46°47'00.000" N
65°01'00.000" W
21.00 m
8102328
71670
AKC

Download Data

Hourly Data (September 2017)
Hourly Data Report for September 10, 2017
Temp Definition
°C
Dew Point Temp Definition
°C
Rel Hum Definition
%
Wind Dir Definition
10's deg

Wind Spd Definition
km/h
Visibility Definition
km
Stn Press Definition
kPa
Hmdx Definition


Wind Chill Definition


Weather Definition


TIME
00:00 13.4 11.3 87 1 7   102.23     LegendNANA
01:00 12.2 10.9 92 1 5   102.23     LegendNANA
02:00 10.8 10.2 96 36 3   102.23     LegendNANA
03:00 9.9 9.4 97 0 1   102.20     LegendNANA
04:00 9.0 8.6 97 32 2   102.21     LegendNANA
05:00 10.0 9.8 98 35 2   102.28     LegendNANA
06:00 10.6 10.4 99 33 4   102.30     LegendNANA
07:00 11.5 11.3 99 33 6   102.31     LegendNANA
08:00 11.9 11.4 97 32 9   102.31     LegendNANA
09:00 13.2 11.7 91 32 7   102.31     LegendNANA
10:00 15.7 10.2 70 36 8   102.28     LegendNANA
11:00 17.6 10.3 62 6 5   102.22     LegendNANA
12:00 19.4 11.1 59 7 6   102.15     LegendNANA
13:00 18.7 11.5 63 3 8   102.10     LegendNANA
14:00 18.8 10.6 59 7 8   102.04     LegendNANA
15:00 17.8 9.6 58 6 7   101.96     LegendNANA
16:00 17.2 10.4 64 11 4   101.93     LegendNANA
17:00 16.0 10.7 71 11 2   101.92     LegendNANA
18:00 14.0 11.9 88   0   101.90     LegendNANA
19:00 12.5 11.6 94 19 2   101.92     LegendNANA
20:00 12.6 9.9 84 27 2   101.91     LegendNANA
21:00 12.1 10.0 87 25 4   101.84     LegendNANA
22:00 12.7 9.5 81 26 5   101.80     LegendNANA
23:00 12.7 8.7 77 29 3   101.77     LegendNANA

Notes on Data Quality.

Legend

  • E = Estimated
  • M = Missing
  • NA = Not Available
  • ‡ = Partner data that is not subject to review by the National Climate Archives
Date modified: